GW3733 Weather Reports


time (UTC)temp
C
wind
direction
speed
KPH
gust
KPH
rain 1hr
cm
rain 24hr
cm
rain mn
cm
humidity
%
barometer
mb
20260902191323 28 339 0.0 0.0 0.00 0.00 0.00 78 1013.9
20260902190818 28 349 1.6 3.2 0.00 0.00 0.00 80 1014.1
20260902190317 28 343 3.2 3.2 0.00 0.00 0.00 80 1014.3
20260902185814 27 20 1.6 1.6 0.00 0.00 0.00 81 1014.6
20260902185306 27 63 1.6 3.2 0.00 0.00 0.00 80 1014.6
20260902184759 28 352 4.8 9.7 0.00 0.00 0.00 78 1014.6
20260902184249 28 13 0.0 1.6 0.00 0.00 0.00 78 1014.5
20260902183744 27 280 4.8 6.4 0.00 0.00 0.00 80 1014.8
20260902183240 27 220 6.4 6.4 0.00 0.00 0.00 82 1014.9
20260902182736 27 353 1.6 1.6 0.00 0.00 0.00 82 1015.0
20260902182233 27 4 0.0 1.6 0.00 0.00 0.00 83 1015.0
20260902181729 27 355 0.0 0.0 0.00 0.00 0.00 83 1015.0
20260902181228 27 332 3.2 3.2 0.00 0.00 0.00 82 1015.1
20260902180723 29 0 1.6 1.6 0.00 0.00 0.00 77 1015.0
20260902180219 31 39 1.6 3.2 0.00 0.00 0.00 72 1014.6
20260902175713 32 349 0.0 0.0 0.00 0.00 0.00 68 1014.6
20260902175209 32 353 0.0 0.0 0.00 0.00 0.00 67 1014.3
20260902174705 33 335 0.0 1.6 0.00 0.00 0.00 61 1014.1
20260902174201 33 336 0.0 1.6 0.00 0.00 0.00 64 1014.4
20260902173656 33 15 0.0 1.6 0.00 0.00 0.00 62 1014.4
20260902173151 32 39 0.0 0.0 0.00 0.00 0.00 64 1014.5
20260902172646 31 33 0.0 1.6 0.00 0.00 0.00 70 1014.7
20260902172145 32 351 0.0 0.0 0.00 0.00 0.00 66 1014.8
20260902171640 32 334 0.0 1.6 0.00 0.00 0.00 68 1014.9
20260902171136 31 324 0.0 1.6 0.00 0.00 0.00 72 1014.9
20260902170632 32 352 0.0 1.6 0.00 0.00 0.00 64 1014.9
20260902170127 32 342 0.0 1.6 0.00 0.00 0.00 66 1015.1
20260902165626 32 351 0.0 1.6 0.00 0.00 0.00 65 1015.2
20260902165121 31 2 1.6 1.6 0.00 0.00 0.00 65 1015.4
20260902164616 32 206 3.2 3.2 0.00 0.00 0.00 66 1015.0
20260902164115 32 219 3.2 3.2 0.00 0.00 0.00 70 1015.1
20260902163611 31 359 0.0 0.0 0.00 0.00 0.00 72 1015.3
20260902163109 31 182 3.2 3.2 0.00 0.00 0.00 70 1015.1
20260902162609 31 14 0.0 0.0 0.00 0.00 0.00 69 1015.2
20260902162109 31 38 3.2 3.2 0.00 0.00 0.00 68 1015.4
20260902161603 32 347 1.6 1.6 0.00 0.00 0.00 64 1015.4
20260902161100 33 306 0.0 1.6 0.00 0.00 0.00 66 1015.3
20260902160550 32 282 1.6 1.6 0.00 0.00 0.00 68 1015.3
20260902160045 32 355 1.6 3.2 0.00 0.00 0.00 68 1015.2
20260902155538 32 327 1.6 1.6 0.00 0.00 0.00 74 1015.2
20260902155037 32 352 0.0 0.0 0.00 0.00 0.00 74 1015.2
20260902154532 31 355 0.0 1.6 0.00 0.00 0.00 69 1015.1
20260902154027 32 331 1.6 3.2 0.00 0.00 0.00 73 1015.4
20260902153525 32 12 0.0 0.0 0.00 0.00 0.00 70 1015.1
20260902153021 31 345 0.0 0.0 0.00 0.00 0.00 69 1015.3
20260902152518 31 8 0.0 1.6 0.00 0.00 0.00 71 1015.4
20260902152013 31 301 3.2 3.2 0.00 0.00 0.00 72 1015.3
20260902151509 31 295 1.6 3.2 0.00 0.00 0.00 70 1015.2
20260902151008 31 339 1.6 3.2 0.00 0.00 0.00 70 1015.1
20260902150503 31 358 1.6 3.2 0.00 0.00 0.00 71 1015.3
20260902145958 30 1 0.0 1.6 0.00 0.00 0.00 77 1015.2
20260902145453 30 20 0.0 0.0 0.00 0.00 0.00 70 1014.9
20260902144948 30 18 0.0 1.6 0.00 0.00 0.00 72 1015.0
20260902144444 30 25 1.6 3.2 0.00 0.00 0.00 71 1015.0
20260902143938 30 35 1.6 1.6 0.00 0.00 0.00 76 1015.1
20260902143434 30 332 1.6 1.6 0.00 0.00 0.00 81 1015.1
20260902142928 30 21 1.6 1.6 0.00 0.00 0.00 76 1015.0
20260902142424 29 20 0.0 0.0 0.00 0.00 0.00 84 1015.1
20260902141920 29 28 0.0 0.0 0.00 0.00 0.00 76 1015.0
20260902141415 28 16 0.0 0.0 0.00 0.00 0.00 83 1015.3
20260902140914 28 351 0.0 0.0 0.00 0.00 0.00 84 1015.1
20260902140410 26 350 0.0 0.0 0.00 0.00 0.00 89 1014.9
20260902135904 26 350 0.0 0.0 0.00 0.00 0.00 91 1015.0
20260902135400 26 350 0.0 0.0 0.00 0.00 0.00 90 1015.0
20260902134858 26 339 0.0 0.0 0.00 0.00 0.00 90 1015.1
20260902134354 26 339 0.0 0.0 0.00 0.00 0.00 89 1015.0
20260902133849 27 350 0.0 0.0 0.00 0.00 0.00 86 1015.1
20260902133349 27 350 0.0 0.0 0.00 0.00 0.00 83 1015.3
20260902132844 27 350 0.0 0.0 0.00 0.00 0.00 84 1015.1
20260902132339 26 328 0.0 0.0 0.00 0.00 0.00 85 1015.2
20260902131835 25 328 0.0 0.0 0.00 0.00 0.00 88 1015.1
20260902131331 24 328 0.0 0.0 0.00 0.00 0.00 91 1014.9
20260902130830 23 326 0.0 0.0 0.00 0.00 0.00 92 1015.1
20260902130326 22 326 0.0 0.0 0.00 0.00 0.00 94 1015.0
20260902125821 22 326 0.0 0.0 0.00 0.00 0.00 95 1015.4
20260902125317 22 7 0.0 0.0 0.00 0.00 0.00 96 1015.2
20260902124813 22 331 0.0 0.0 0.00 0.00 0.00 97 1015.3
20260902124309 21 349 0.0 0.0 0.00 0.00 0.00 98 1015.2
20260902123803 21 337 0.0 0.0 0.00 0.00 0.00 99 1015.1
20260902123300 21 331 0.0 0.0 0.00 0.00 0.00 99 1015.2
20260902122758 20 331 0.0 0.0 0.00 0.00 0.00 99 1015.1
20260902122254 20 319 0.0 0.0 0.00 0.00 0.00 99 1015.2
20260902121749 20 331 0.0 0.0 0.00 0.00 0.00 99 1014.9
20260902121243 20 331 0.0 0.0 0.00 0.00 0.00 99 1015.1
20260902120739 20 319 0.0 0.0 0.00 0.00 0.00 99 1015.2
20260902120235 20 319 0.0 0.0 0.00 0.00 0.00 99 1015.1
20260902115730 20 319 0.0 0.0 0.00 0.00 0.00 99 1015.2
20260902115226 20 319 0.0 0.0 0.00 0.00 0.00 99 1014.9
20260902114722 20 319 0.0 0.0 0.00 0.00 0.00 99 1015.0
20260902114217 20 319 0.0 0.0 0.00 0.00 0.00 99 1015.0
20260902113711 20 319 0.0 0.0 0.00 0.00 0.00 99 1015.1
20260902113206 20 313 0.0 0.0 0.00 0.00 0.00 99 1015.0
20260902112701 19 324 0.0 0.0 0.00 0.00 0.00 99 1015.1
20260902112159 19 319 0.0 0.0 0.00 0.00 0.00 99 1015.0
20260902111654 19 325 0.0 0.0 0.00 0.00 0.00 99 1015.1
20260902111149 19 324 0.0 0.0 0.00 0.00 0.00 99 1015.1
20260902110645 19 324 0.0 0.0 0.00 0.00 0.00 99 1015.2
20260902110141 19 324 0.0 0.0 0.00 0.00 0.00 99 1015.0
20260902105640 19 324 0.0 0.0 0.00 0.00 0.00 99 1014.9
20260902105136 19 324 0.0 0.0 0.00 0.00 0.00 99 1015.0
20260902104631 19 324 0.0 0.0 0.00 0.00 0.00 99 1015.2
20260902104126 19 324 0.0 0.0 0.00 0.00 0.00 99 1015.2
20260902103625 19 324 0.0 0.0 0.00 0.00 0.00 99 1014.9
20260902103121 19 324 0.0 0.0 0.00 0.00 0.00 99 1015.1
20260902102617 19 324 0.0 0.0 0.00 0.00 0.00 99 1015.1
20260902102114 19 324 0.0 0.0 0.00 0.00 0.00 99 1014.9
20260902101609 19 324 0.0 0.0 0.00 0.00 0.00 99 1015.0
20260902101109 20 324 0.0 0.0 0.00 0.00 0.00 99 1015.1
20260902100603 20 324 0.0 0.0 0.00 0.00 0.00 99 1014.8
20260902100058 20 324 0.0 0.0 0.00 0.00 0.00 99 1014.9
20260902095557 20 324 0.0 0.0 0.00 0.00 0.00 99 1014.7
20260902095056 20 324 0.0 0.0 0.00 0.00 0.00 99 1014.9
20260902094547 20 324 0.0 0.0 0.00 0.00 0.00 99 1015.0
20260902094042 20 324 0.0 0.0 0.00 0.00 0.00 99 1015.0
20260902093537 20 324 0.0 0.0 0.00 0.00 0.00 99 1014.7
20260902093037 20 324 0.0 0.0 0.00 0.00 0.00 99 1014.9
20260902092532 20 324 0.0 0.0 0.00 0.00 0.00 99 1015.0
20260902092027 20 324 0.0 0.0 0.00 0.00 0.00 99 1014.9
20260902091522 20 324 0.0 0.0 0.00 0.00 0.00 99 1015.0
20260902091018 20 324 0.0 0.0 0.00 0.00 0.00 99 1014.9
20260902090514 20 324 0.0 0.0 0.00 0.00 0.00 99 1015.0
20260902090013 20 324 0.0 0.0 0.00 0.00 0.00 99 1015.0
20260902085513 20 324 0.0 0.0 0.00 0.00 0.00 99 1014.7
20260902085008 20 324 0.0 0.0 0.00 0.00 0.00 99 1015.0
20260902084504 20 324 0.0 0.0 0.00 0.00 0.00 99 1014.9
20260902084000 20 324 0.0 0.0 0.00 0.00 0.00 99 1015.0
20260902083454 20 324 0.0 0.0 0.00 0.00 0.00 99 1014.9
20260902082949 20 324 0.0 0.0 0.00 0.00 0.00 99 1014.8
20260902082444 20 324 0.0 0.0 0.00 0.00 0.00 99 1014.6
20260902081941 20 324 0.0 0.0 0.00 0.00 0.00 99 1014.8
20260902081437 20 324 0.0 0.0 0.00 0.00 0.00 99 1014.6
20260902080931 20 324 0.0 0.0 0.00 0.00 0.00 99 1014.6
20260902080427 20 324 0.0 0.0 0.00 0.00 0.00 99 1014.8
20260902075922 20 324 0.0 0.0 0.00 0.00 0.00 99 1014.5
20260902075418 20 324 0.0 0.0 0.00 0.00 0.00 99 1014.6
20260902074913 21 324 0.0 0.0 0.00 0.00 0.00 99 1014.8
20260902074409 21 324 0.0 0.0 0.00 0.00 0.00 99 1014.7
20260902073903 21 324 0.0 0.0 0.00 0.00 0.00 99 1014.6
20260902073400 21 324 0.0 0.0 0.00 0.00 0.00 99 1014.7
20260902072855 21 324 0.0 0.0 0.00 0.00 0.00 99 1014.6
20260902072351 21 324 0.0 0.0 0.00 0.00 0.00 99 1014.5
20260902071848 21 324 0.0 0.0 0.00 0.00 0.00 99 1014.6
20260902071347 21 324 0.0 0.0 0.00 0.00 0.00 99 1014.4
20260902070843 21 324 0.0 0.0 0.00 0.00 0.00 99 1014.5
20260902070338 21 324 0.0 0.0 0.00 0.00 0.00 99 1014.4
20260902065837 21 324 0.0 0.0 0.00 0.00 0.00 99 1014.4
20260902065332 21 324 0.0 0.0 0.00 0.00 0.00 98 1014.4
20260902064827 21 324 0.0 0.0 0.00 0.00 0.00 98 1014.4
20260902064323 21 324 0.0 0.0 0.00 0.00 0.00 98 1014.7
20260902063818 21 324 0.0 0.0 0.00 0.00 0.00 98 1014.5
20260902063312 21 324 0.0 0.0 0.00 0.00 0.00 98 1014.5
20260902062807 21 324 0.0 0.0 0.00 0.00 0.00 98 1014.7
20260902062305 21 324 0.0 0.0 0.00 0.00 0.00 98 1014.6
20260902061802 21 324 0.0 0.0 0.00 0.00 0.00 98 1015.0
20260902061256 21 324 0.0 0.0 0.00 0.00 0.00 98 1014.9
20260902060754 21 324 0.0 0.0 0.00 0.00 0.00 98 1015.0
20260902060249 20 324 0.0 0.0 0.00 0.00 0.00 98 1015.1
20260902055744 20 324 0.0 0.0 0.00 0.00 0.00 98 1015.2
20260902055240 20 324 0.0 0.0 0.00 0.00 0.00 98 1015.2
20260902054735 20 324 0.0 0.0 0.00 0.00 0.00 98 1015.2
20260902054230 20 324 0.0 0.0 0.00 0.00 0.00 98 1015.1
20260902053725 20 324 0.0 0.0 0.00 0.00 0.00 98 1015.0
20260902053220 20 324 0.0 0.0 0.00 0.00 0.00 99 1015.2
20260902052719 20 324 0.0 0.0 0.00 0.00 0.00 99 1015.2
20260902052215 20 324 0.0 0.0 0.00 0.00 0.00 99 1015.1
20260902051714 20 324 0.0 0.0 0.00 0.00 0.00 99 1015.1
20260902051209 20 324 0.0 0.0 0.00 0.00 0.00 99 1014.9
20260902050704 20 324 0.0 0.0 0.00 0.00 0.00 99 1014.9
20260902050159 20 324 0.0 0.0 0.00 0.00 0.00 99 1014.9
20260902045653 20 324 0.0 0.0 0.00 0.00 0.00 99 1015.0
20260902045149 20 324 0.0 0.0 0.00 0.00 0.00 99 1015.0
20260902044643 20 324 0.0 0.0 0.00 0.00 0.00 99 1015.0
20260902044140 20 324 0.0 0.0 0.00 0.00 0.00 99 1014.8
20260902043635 20 324 0.0 0.0 0.00 0.00 0.00 98 1014.6
20260902043131 20 324 0.0 0.0 0.00 0.00 0.00 98 1014.5
20260902042630 20 324 0.0 0.0 0.00 0.00 0.00 98 1014.5
20260902042125 20 324 0.0 0.0 0.00 0.00 0.00 98 1014.4
20260902041625 20 324 0.0 0.0 0.00 0.00 0.00 98 1014.2
20260902041120 21 324 0.0 0.0 0.00 0.00 0.00 97 1014.2
20260902040619 21 324 0.0 0.0 0.00 0.00 0.00 97 1014.1
20260902040114 21 324 0.0 0.0 0.00 0.00 0.00 97 1014.0
20260902035613 21 324 0.0 0.0 0.00 0.00 0.00 97 1014.0
20260902035108 21 324 0.0 0.0 0.00 0.00 0.00 97 1013.7
20260902034607 21 324 0.0 0.0 0.00 0.00 0.00 96 1013.7
20260902034101 21 324 0.0 0.0 0.00 0.00 0.00 96 1013.9
20260902033601 21 324 0.0 0.0 0.00 0.00 0.00 96 1013.6
20260902033055 21 324 0.0 0.0 0.00 0.00 0.00 95 1013.9
20260902032554 21 324 1.6 1.6 0.00 0.00 0.00 95 1013.9
20260902032049 21 324 0.0 0.0 0.00 0.00 0.00 94 1013.6
20260902031544 21 324 0.0 0.0 0.00 0.00 0.00 94 1013.4
20260902031040 22 324 0.0 0.0 0.00 0.00 0.00 93 1013.5
20260902030539 22 324 0.0 0.0 0.00 0.00 0.00 93 1013.5
20260902030039 22 324 0.0 0.0 0.00 0.00 0.00 92 1013.3
20260902025534 22 324 0.0 0.0 0.00 0.00 0.00 91 1013.2
20260902025030 22 324 0.0 0.0 0.00 0.00 0.00 91 1013.3
20260902024525 22 324 0.0 0.0 0.00 0.00 0.00 91 1013.4
20260902024019 22 324 0.0 0.0 0.00 0.00 0.00 90 1013.3
20260902023510 23 325 0.0 0.0 0.00 0.00 0.00 89 1013.3
20260902023009 23 329 0.0 0.0 0.00 0.00 0.00 89 1013.3
20260902022504 23 333 0.0 0.0 0.00 0.00 0.00 88 1013.4
20260902022000 23 344 0.0 0.0 0.00 0.00 0.00 87 1013.5
20260902021455 24 344 0.0 0.0 0.00 0.00 0.00 86 1013.6
20260902020950 24 344 0.0 0.0 0.00 0.00 0.00 85 1013.9
20260902020446 25 343 0.0 0.0 0.00 0.00 0.00 84 1013.9
20260902015942 25 343 0.0 0.0 0.00 0.00 0.00 83 1013.6
20260902015437 25 321 1.6 3.2 0.00 0.00 0.00 79 1014.0
20260902014932 26 7 1.6 1.6 0.00 0.00 0.00 76 1014.1
20260902014429 25 23 0.0 1.6 0.00 0.00 0.00 77 1014.0
20260902013928 25 14 0.0 0.0 0.00 0.00 0.00 78 1013.5
20260902013424 25 357 0.0 0.0 0.00 0.00 0.00 77 1013.7
20260902012919 26 320 0.0 1.6 0.00 0.00 0.00 76 1013.6
20260902012414 25 3 0.0 0.0 0.00 0.00 0.00 78 1013.2
20260902011910 25 348 0.0 0.0 0.00 0.00 0.00 81 1013.5
20260902011405 25 344 0.0 0.0 0.00 0.00 0.00 81 1013.5
20260902010905 25 345 0.0 0.0 0.00 0.00 0.00 83 1013.3
20260902010359 25 345 0.0 0.0 0.00 0.00 0.00 81 1013.3
20260902005858 25 345 0.0 0.0 0.00 0.00 0.00 80 1013.1
20260902005352 25 345 0.0 0.0 0.00 0.00 0.00 79 1013.0
20260902004848 25 345 0.0 0.0 0.00 0.00 0.00 80 1012.9
20260902004343 26 351 0.0 0.0 0.00 0.00 0.00 78 1013.0
20260902003838 26 351 0.0 0.0 0.00 0.00 0.00 74 1013.3
20260902003333 27 354 0.0 0.0 0.00 0.00 0.00 75 1013.2
20260902002829 27 348 1.6 1.6 0.00 0.00 0.00 72 1013.2
20260902002328 27 330 0.0 1.6 0.00 0.00 0.00 74 1012.9
20260902001823 27 349 3.2 3.2 0.00 0.00 0.00 72 1013.0
20260902001318 27 343 1.6 1.6 0.00 0.00 0.00 72 1012.7
20260902000818 27 352 1.6 1.6 0.00 0.00 0.00 72 1012.9
20260902000313 27 343 3.2 3.2 0.00 0.00 0.00 70 1012.7
20260901235808 27 345 3.2 3.2 0.00 0.00 0.00 71 1012.6
20260901235307 27 350 1.6 1.6 0.00 0.00 0.00 70 1012.7
20260901234803 27 345 0.0 0.0 0.00 0.00 0.00 72 1012.8
20260901234257 27 5 0.0 0.0 0.00 0.00 0.00 75 1012.6
20260901233757 26 344 1.6 3.2 0.00 0.00 0.00 77 1012.6
20260901233253 27 270 3.2 3.2 0.00 0.00 0.00 78 1012.7
20260901232748 27 9 0.0 0.0 0.00 0.00 0.00 77 1012.7
20260901232238 27 346 0.0 0.0 0.00 0.00 0.00 75 1012.6
20260901231734 28 351 1.6 1.6 0.00 0.00 0.00 73 1012.6
20260901231230 28 354 3.2 3.2 0.00 0.00 0.00 72 1012.4
20260901230725 28 333 1.6 1.6 0.00 0.00 0.00 74 1012.5
20260901230219 28 355 1.6 1.6 0.00 0.00 0.00 76 1012.6
20260901225715 28 347 0.0 0.0 0.00 0.00 0.00 77 1012.6
20260901225209 28 346 1.6 1.6 0.00 0.00 0.00 77 1012.8
20260901224705 27 346 1.6 1.6 0.00 0.00 0.00 80 1012.7
20260901224201 28 346 0.0 0.0 0.00 0.00 0.00 80 1012.8
20260901223656 28 346 0.0 0.0 0.00 0.00 0.00 78 1012.4
20260901223151 28 358 0.0 0.0 0.00 0.00 0.00 77 1012.6
20260901222648 28 350 0.0 0.0 0.00 0.00 0.00 76 1012.8
20260901222144 29 350 0.0 0.0 0.00 0.00 0.00 76 1012.6
20260901221639 28 347 0.0 0.0 0.00 0.00 0.00 75 1012.7
20260901221135 29 38 1.6 3.2 0.00 0.00 0.00 73 1012.7
20260901220634 29 355 0.0 0.0 0.00 0.00 0.00 73 1013.0
20260901220134 29 8 3.2 4.8 0.00 0.00 0.00 73 1012.6
20260901215632 29 17 0.0 0.0 0.00 0.00 0.00 77 1012.7
20260901215126 29 1 0.0 0.0 0.00 0.00 0.00 73 1012.7
20260901214624 29 24 3.2 4.8 0.00 0.00 0.00 71 1012.7
20260901214118 30 346 0.0 0.0 0.00 0.00 0.00 73 1012.5
20260901213613 30 298 4.8 6.4 0.00 0.00 0.00 69 1012.6
20260901213107 30 326 1.6 1.6 0.00 0.00 0.00 71 1012.5
20260901212602 30 355 0.0 0.0 0.00 0.00 0.00 72 1012.6
20260901212058 30 346 0.0 0.0 0.00 0.00 0.00 69 1012.6
20260901211553 31 349 3.2 4.8 0.00 0.00 0.00 67 1012.8
20260901211049 31 10 1.6 1.6 0.00 0.00 0.00 66 1012.6
20260901210544 31 338 1.6 1.6 0.00 0.00 0.00 68 1012.5
20260901210041 30 334 4.8 4.8 0.00 0.00 0.00 68 1012.5
20260901205535 30 340 0.0 0.0 0.00 0.00 0.00 69 1012.5
20260901205030 30 357 0.0 0.0 0.00 0.00 0.00 70 1012.6
20260901204526 30 348 0.0 0.0 0.00 0.00 0.00 72 1012.5
20260901204021 30 343 0.0 0.0 0.00 0.00 0.00 68 1012.7
20260901203521 30 293 0.0 0.0 0.00 0.00 0.00 68 1012.7
20260901203016 30 341 0.0 0.0 0.00 0.00 0.00 69 1012.9
20260901202510 30 337 0.0 0.0 0.00 0.00 0.00 70 1012.6
20260901202006 30 346 0.0 0.0 0.00 0.00 0.00 72 1012.8
20260901201501 30 351 0.0 0.0 0.00 0.00 0.00 67 1012.9
20260901200956 31 342 0.0 0.0 0.00 0.00 0.00 68 1012.5
20260901200451 30 341 0.0 0.0 0.00 0.00 0.00 67 1012.6
20260901195950 31 349 0.0 0.0 0.00 0.00 0.00 66 1012.6
20260901195449 31 330 0.0 0.0 0.00 0.00 0.00 69 1012.6
20260901194943 31 4 0.0 0.0 0.00 0.00 0.00 65 1012.6
20260901194438 31 318 0.0 0.0 0.00 0.00 0.00 64 1012.6
20260901193935 32 336 0.0 0.0 0.00 0.00 0.00 63 1012.5
20260901193434 32 334 0.0 0.0 0.00 0.00 0.00 62 1012.7
20260901192933 32 340 0.0 0.0 0.00 0.00 0.00 63 1012.7
20260901192429 31 358 0.0 0.0 0.00 0.00 0.00 64 1012.9
20260901191925 32 353 0.0 0.0 0.00 0.00 0.00 64 1012.8